map of STX home
STX - Airport
Location
City:  Christiansted, Virgin Islands, United States
Name:Henry E Rohlsen Airport
ICAO:TISX
IATA:STX
FAA LID:STX

Details
Type:Airport (Part 139 Class I)
Use:Public/Civil, International (customs landing rights)
Latitude:1742'05"N (17.701504)
Longitude:6448'07"W (-64.801942)
Datum:WGS 1984
Elevation:74 ft (23 m)
Variation:13.63W (WMM2015 magnetic declination)
-0.04 annual change
Runways:1
Longest:10004 × 150 ft (3049 × 45.5 m), paved

Time
Time Zone:UTC-4
Local Time:

Weather
METAR:TISX 031853Z 12009KT 10SM FEW035 29/23 A2995 RMK AO2 SLP139 T02940228
TAF:TISX 031736Z 0318/0418 12010KT P6SM VCSH SCT025
FM032300 VRB06KT P6SM FEW025
FM041300 11013KT P6SM SCT025

Related Locations
Nearby:
Farthest:BWB: 12212 mi / 19653 km
Barrow Island, WA, AU

Find:

   beyond  
but within

Other Information
Maps:
NOTAMs:
Links:
Sources:

  
flag of United States
flag of Virgin Islands
  

Airport Diagram

Airport diagram for STX

Airport diagram PDF

Sectional Chart

Flight Planning
at skyvector.com

Satellite Image

Google Maps Satellite view

 

Copyright © 2004-2016 Karl L. Swartz. All rights reserved.
The Great Circle Mapper name and logo are trademarks of the Great Circle Mapper.
All other trademarks mentioned herein belong to their respective owners.
Please see credits for attibutions and further copyright information.

  Follow gcmap on Facebook Follow gcmap on Twitter Follow gcmap on Google+ GCmap on LinkedIn

hCard Microformat

Geo Microformat